Location: Corsier
(46.2637°N, 6.2238°E)
Time: 02:34:42
(UTC+00:00)

Cosmos-2242 - Pass Details

Date: 07 June 2020
Orbit: 590 x 617 km, 82.5° (Epoch: 09 July)

Event Time Altitude Azimuth Distance (km) Brightness Sun altitude
Rises 00:26:48 0° 350° (N) 2,838 7.7 -19.9°
Reaches altitude 10° 00:29:01 10° 350° (N) 1,931 6.6 -19.8°
Maximum altitude 00:33:17 87° 266° (W) 599 2.9 -19.7°
Enters shadow 00:34:24 49° 176° (S) 768 3.1 -19.6°
